| time (UTC) | temp F | wind direction | speed MPH | gust MPH | rain 1hr in | rain 24hr in | rain mn in | humidity % | barometer mb |
| 20260906133421 | 70 | 72 | 0.0 | 3.0 | 0.00 | 0.01 | 0.01 | 89 | 1021.7 |
| 20260906132521 | 69 | 58 | 1.0 | 2.0 | 0.00 | 0.01 | 0.01 | 91 | 1021.7 |
| 20260906131621 | 68 | 19 | 0.0 | 1.0 | 0.00 | 0.01 | 0.01 | 94 | 1021.6 |
| 20260906130721 | 67 | 6 | 0.0 | 1.0 | 0.00 | 0.01 | 0.01 | 96 | 1021.5 |
| 20260906125821 | 66 | 0 | 0.0 | 0.0 | 0.00 | 0.01 | 0.01 | 96 | 1021.5 |
| 20260906124021 | 65 | 0 | 0.0 | 0.0 | 0.00 | 0.01 | 0.01 | 96 | 1020.9 |
| 20260906123121 | 64 | 0 | 0.0 | 0.0 | 0.00 | 0.01 | 0.01 | 96 | 1020.9 |
| 20260906121321 | 62 | 0 | 0.0 | 0.0 | 0.00 | 0.01 | 0.01 | 96 | 1020.9 |
| 20260906120421 | 62 | 0 | 0.0 | 0.0 | 0.00 | 0.01 | 0.01 | 96 | 1020.7 |
| 20260906115521 | 62 | 0 | 0.0 | 0.0 | 0.00 | 0.01 | 0.01 | 96 | 1020.5 |
| 20260906113721 | 61 | 0 | 0.0 | 0.0 | 0.00 | 0.01 | 0.01 | 96 | 1020.4 |
| 20260906111021 | 62 | 0 | 0.0 | 0.0 | 0.00 | 0.01 | 0.01 | 96 | 1019.9 |
| 20260906110121 | 62 | 0 | 0.0 | 0.0 | 0.00 | 0.01 | 0.01 | 96 | 1019.9 |
| 20260906105221 | 63 | 0 | 0.0 | 0.0 | 0.00 | 0.01 | 0.01 | 96 | 1020.1 |
| 20260906104321 | 63 | 64 | 0.0 | 1.0 | 0.00 | 0.01 | 0.01 | 96 | 1020.0 |
| 20260906103421 | 62 | 0 | 0.0 | 0.0 | 0.00 | 0.01 | 0.01 | 96 | 1020.1 |
| 20260906101621 | 62 | 0 | 0.0 | 0.0 | 0.00 | 0.01 | 0.01 | 96 | 1020.1 |
| 20260906100721 | 62 | 0 | 0.0 | 0.0 | 0.00 | 0.01 | 0.01 | 96 | 1020.0 |
| 20260906095821 | 62 | 0 | 0.0 | 0.0 | 0.01 | 0.01 | 0.01 | 96 | 1019.8 |
| 20260906094021 | 62 | 0 | 0.0 | 0.0 | 0.01 | 0.01 | 0.01 | 96 | 1019.7 |
| 20260906093121 | 62 | 0 | 0.0 | 0.0 | 0.01 | 0.01 | 0.01 | 96 | 1019.9 |
| 20260906092221 | 62 | 13 | 0.0 | 1.0 | 0.01 | 0.01 | 0.01 | 96 | 1019.7 |
| 20260906091321 | 62 | 6 | 0.0 | 2.0 | 0.01 | 0.01 | 0.01 | 96 | 1019.7 |
| 20260906090421 | 62 | 0 | 0.0 | 0.0 | 0.00 | 0.00 | 0.00 | 96 | 1019.7 |
| 20260906085521 | 62 | 24 | 0.0 | 2.0 | 0.00 | 0.00 | 0.00 | 96 | 1019.6 |
| 20260906084621 | 62 | 3 | 0.0 | 2.0 | 0.00 | 0.00 | 0.00 | 96 | 1019.7 |
| 20260906083721 | 62 | 9 | 0.0 | 2.0 | 0.00 | 0.00 | 0.00 | 96 | 1019.6 |
| 20260906082821 | 63 | 0 | 0.0 | 0.0 | 0.00 | 0.00 | 0.00 | 96 | 1019.7 |
| 20260906081921 | 63 | 0 | 0.0 | 0.0 | 0.00 | 0.00 | 0.00 | 96 | 1019.6 |
| 20260906081021 | 63 | 0 | 0.0 | 0.0 | 0.00 | 0.00 | 0.00 | 97 | 1019.6 |
| 20260906080121 | 63 | 0 | 0.0 | 0.0 | 0.00 | 0.00 | 0.00 | 97 | 1019.6 |
| 20260906075221 | 62 | 0 | 0.0 | 0.0 | 0.00 | 0.00 | 0.00 | 97 | 1019.5 |
| 20260906073421 | 61 | 0 | 0.0 | 0.0 | 0.00 | 0.00 | 0.00 | 96 | 1019.5 |
| 20260906072521 | 61 | 0 | 0.0 | 0.0 | 0.00 | 0.00 | 0.00 | 96 | 1019.4 |
| 20260906070721 | 61 | 0 | 0.0 | 0.0 | 0.00 | 0.00 | 0.00 | 96 | 1019.2 |
| 20260906065821 | 62 | 0 | 0.0 | 0.0 | 0.00 | 0.00 | 0.00 | 96 | 1019.2 |
| 20260906064921 | 62 | 0 | 0.0 | 0.0 | 0.00 | 0.00 | 0.00 | 96 | 1019.3 |
| 20260906064021 | 62 | 0 | 0.0 | 0.0 | 0.00 | 0.00 | 0.00 | 96 | 1019.4 |
| 20260906063121 | 62 | 0 | 0.0 | 0.0 | 0.00 | 0.00 | 0.00 | 96 | 1019.5 |
| 20260906062221 | 61 | 0 | 0.0 | 0.0 | 0.00 | 0.00 | 0.00 | 96 | 1019.4 |
| 20260906061321 | 61 | 0 | 0.0 | 0.0 | 0.00 | 0.00 | 0.00 | 96 | 1019.3 |
| 20260906060421 | 61 | 0 | 0.0 | 0.0 | 0.00 | 0.00 | 0.00 | 95 | 1019.3 |
| 20260906055521 | 62 | 0 | 0.0 | 0.0 | 0.00 | 0.00 | 0.00 | 96 | 1019.3 |
| 20260906054621 | 62 | 0 | 0.0 | 0.0 | 0.00 | 0.00 | 0.00 | 95 | 1019.1 |
| 20260906051921 | 62 | 0 | 0.0 | 0.0 | 0.00 | 0.00 | 0.00 | 95 | 1019.2 |
| 20260906050121 | 62 | 0 | 0.0 | 0.0 | 0.00 | 0.00 | 0.00 | 95 | 1019.0 |
| 20260906045220 | 63 | 0 | 0.0 | 0.0 | 0.00 | 0.00 | 0.00 | 95 | 1019.0 |
| 20260906044320 | 63 | 0 | 0.0 | 0.0 | 0.00 | 0.00 | 0.00 | 95 | 1019.1 |
| 20260906043420 | 63 | 0 | 0.0 | 0.0 | 0.00 | 0.00 | 0.00 | 95 | 1019.0 |
| 20260906042521 | 63 | 0 | 0.0 | 0.0 | 0.00 | 0.00 | 0.00 | 95 | 1019.1 |
| 20260906041620 | 63 | 0 | 0.0 | 0.0 | 0.00 | 0.00 | 0.00 | 94 | 1018.9 |
| 20260906040720 | 63 | 0 | 0.0 | 0.0 | 0.00 | 0.00 | 0.00 | 94 | 1018.8 |
| 20260906035821 | 63 | 0 | 0.0 | 0.0 | 0.00 | 0.00 | 0.00 | 94 | 1018.6 |
| 20260906034921 | 64 | 0 | 0.0 | 0.0 | 0.00 | 0.00 | 0.00 | 94 | 1018.7 |
| 20260906034021 | 64 | 0 | 0.0 | 0.0 | 0.00 | 0.00 | 0.00 | 93 | 1018.7 |
| 20260906033120 | 64 | 0 | 0.0 | 0.0 | 0.00 | 0.00 | 0.00 | 93 | 1018.7 |
| 20260906032220 | 64 | 0 | 0.0 | 0.0 | 0.00 | 0.00 | 0.00 | 93 | 1018.6 |
| 20260906031320 | 64 | 0 | 0.0 | 0.0 | 0.00 | 0.00 | 0.00 | 93 | 1018.6 |
| 20260906030421 | 64 | 0 | 0.0 | 0.0 | 0.00 | 0.00 | 0.00 | 93 | 1018.7 |
| 20260906025520 | 65 | 0 | 0.0 | 0.0 | 0.00 | 0.00 | 0.00 | 92 | 1018.8 |
| 20260906024620 | 65 | 0 | 0.0 | 0.0 | 0.00 | 0.00 | 0.00 | 92 | 1018.8 |
| 20260906023720 | 65 | 0 | 0.0 | 0.0 | 0.00 | 0.00 | 0.00 | 93 | 1018.7 |
| 20260906022820 | 66 | 58 | 0.0 | 1.0 | 0.00 | 0.00 | 0.00 | 93 | 1018.7 |
| 20260906021921 | 66 | 42 | 1.0 | 3.0 | 0.00 | 0.00 | 0.00 | 94 | 1018.5 |
| 20260906020120 | 66 | 0 | 0.0 | 0.0 | 0.00 | 0.00 | 0.00 | 95 | 1018.5 |
| 20260906015221 | 66 | 0 | 0.0 | 0.0 | 0.00 | 0.00 | 0.00 | 94 | 1018.5 |
| 20260906014320 | 66 | 0 | 0.0 | 0.0 | 0.00 | 0.00 | 0.00 | 94 | 1018.4 |
| 20260906012520 | 67 | 0 | 0.0 | 0.0 | 0.00 | 0.00 | 0.00 | 92 | 1018.3 |
| 20260906011620 | 67 | 0 | 0.0 | 0.0 | 0.00 | 0.00 | 0.00 | 92 | 1018.4 |
| 20260906010720 | 68 | 0 | 0.0 | 0.0 | 0.00 | 0.00 | 0.00 | 91 | 1018.3 |
| 20260906005820 | 69 | 0 | 0.0 | 0.0 | 0.00 | 0.00 | 0.00 | 91 | 1018.3 |
| 20260906004920 | 69 | 37 | 0.0 | 3.0 | 0.00 | 0.00 | 0.00 | 90 | 1018.3 |
| 20260906004020 | 70 | 25 | 1.0 | 3.0 | 0.00 | 0.00 | 0.00 | 90 | 1018.2 |
| 20260906003120 | 70 | 34 | 1.0 | 5.0 | 0.00 | 0.00 | 0.00 | 89 | 1018.3 |
| 20260906001320 | 70 | 23 | 1.0 | 3.0 | 0.00 | 0.00 | 0.00 | 89 | 1018.4 |
| 20260906000420 | 71 | 6 | 2.0 | 5.0 | 0.00 | 0.00 | 0.00 | 88 | 1018.4 |
| 20260905234620 | 71 | 344 | 0.0 | 2.0 | 0.00 | 0.00 | 0.00 | 90 | 1018.4 |
| 20260905233720 | 71 | 333 | 0.0 | 1.0 | 0.00 | 0.00 | 0.00 | 90 | 1018.5 |
| 20260905232820 | 71 | 3 | 1.0 | 4.0 | 0.00 | 0.00 | 0.00 | 90 | 1018.4 |
| 20260905231920 | 71 | 22 | 2.0 | 7.0 | 0.00 | 0.00 | 0.00 | 90 | 1018.3 |
| 20260905231020 | 71 | 11 | 2.0 | 5.0 | 0.00 | 0.00 | 0.00 | 90 | 1018.3 |
| 20260905230120 | 71 | 28 | 3.0 | 6.0 | 0.00 | 0.00 | 0.00 | 90 | 1018.3 |
| 20260905225220 | 71 | 13 | 3.0 | 7.0 | 0.00 | 0.00 | 0.00 | 91 | 1018.4 |
| 20260905224320 | 71 | 22 | 3.0 | 7.0 | 0.00 | 0.00 | 0.00 | 90 | 1018.3 |
| 20260905222520 | 72 | 41 | 4.0 | 9.0 | 0.00 | 0.00 | 0.00 | 90 | 1018.0 |
| 20260905220720 | 72 | 47 | 3.0 | 8.0 | 0.00 | 0.00 | 0.00 | 91 | 1017.9 |
| 20260905215820 | 72 | 7 | 3.0 | 7.0 | 0.00 | 0.00 | 0.00 | 91 | 1017.9 |
| 20260905214920 | 72 | 31 | 5.0 | 10.0 | 0.00 | 0.00 | 0.00 | 91 | 1017.7 |
| 20260905211320 | 72 | 15 | 3.0 | 6.0 | 0.00 | 0.00 | 0.00 | 90 | 1017.8 |
| 20260905210420 | 73 | 31 | 4.0 | 8.0 | 0.00 | 0.00 | 0.00 | 90 | 1017.8 |
| 20260905205520 | 73 | 17 | 3.0 | 8.0 | 0.00 | 0.00 | 0.00 | 90 | 1017.8 |
| 20260905204620 | 72 | 16 | 4.0 | 8.0 | 0.00 | 0.00 | 0.00 | 90 | 1017.9 |
| 20260905203720 | 73 | 2 | 3.0 | 7.0 | 0.00 | 0.00 | 0.00 | 90 | 1017.8 |
| 20260905202820 | 73 | 15 | 3.0 | 7.0 | 0.00 | 0.00 | 0.00 | 90 | 1017.6 |
| 20260905201920 | 73 | 352 | 3.0 | 7.0 | 0.00 | 0.00 | 0.00 | 90 | 1017.7 |
| 20260905201020 | 73 | 2 | 3.0 | 7.0 | 0.00 | 0.00 | 0.00 | 90 | 1017.7 |
| 20260905200120 | 73 | 9 | 3.0 | 8.0 | 0.00 | 0.00 | 0.00 | 90 | 1017.6 |
| 20260905195220 | 73 | 11 | 4.0 | 8.0 | 0.00 | 0.00 | 0.00 | 90 | 1017.7 |
| 20260905194320 | 73 | 23 | 4.0 | 9.0 | 0.00 | 0.00 | 0.00 | 90 | 1017.8 |
| 20260905193420 | 73 | 34 | 4.0 | 9.0 | 0.00 | 0.00 | 0.00 | 90 | 1017.8 |
| 20260905185820 | 74 | 27 | 4.0 | 8.0 | 0.00 | 0.00 | 0.00 | 90 | 1017.7 |
| 20260905184920 | 74 | 32 | 5.0 | 11.0 | 0.00 | 0.00 | 0.00 | 90 | 1017.6 |
| 20260905184020 | 74 | 21 | 4.0 | 8.0 | 0.00 | 0.00 | 0.00 | 91 | 1017.7 |
| 20260905182220 | 74 | 358 | 3.0 | 6.0 | 0.00 | 0.00 | 0.00 | 90 | 1017.7 |
| 20260905175520 | 75 | 357 | 4.0 | 8.0 | 0.00 | 0.00 | 0.00 | 89 | 1017.6 |
| 20260905174620 | 75 | 332 | 2.0 | 6.0 | 0.00 | 0.00 | 0.00 | 89 | 1017.6 |
| 20260905173720 | 75 | 342 | 3.0 | 9.0 | 0.00 | 0.00 | 0.00 | 88 | 1017.6 |
| 20260905172820 | 76 | 345 | 3.0 | 6.0 | 0.00 | 0.00 | 0.00 | 87 | 1017.6 |
| 20260905171920 | 76 | 350 | 3.0 | 8.0 | 0.00 | 0.00 | 0.00 | 87 | 1017.5 |
| 20260905171020 | 76 | 344 | 3.0 | 6.0 | 0.00 | 0.00 | 0.00 | 87 | 1017.7 |
| 20260905170120 | 76 | 341 | 3.0 | 7.0 | 0.00 | 0.00 | 0.00 | 86 | 1017.6 |
| 20260905165220 | 76 | 16 | 2.0 | 7.0 | 0.00 | 0.00 | 0.00 | 88 | 1017.7 |
| 20260905164320 | 75 | 349 | 2.0 | 6.0 | 0.00 | 0.00 | 0.00 | 89 | 1017.6 |
| 20260905163420 | 74 | 352 | 2.0 | 6.0 | 0.00 | 0.00 | 0.00 | 89 | 1017.7 |
| 20260905161620 | 74 | 1 | 3.0 | 8.0 | 0.00 | 0.00 | 0.00 | 88 | 1017.7 |
| 20260905160720 | 74 | 339 | 3.0 | 8.0 | 0.00 | 0.00 | 0.00 | 89 | 1017.8 |
| 20260905155820 | 74 | 15 | 3.0 | 9.0 | 0.00 | 0.00 | 0.00 | 88 | 1017.6 |
| 20260905154020 | 75 | 9 | 2.0 | 6.0 | 0.00 | 0.00 | 0.00 | 90 | 1017.5 |
| 20260905152220 | 74 | 5 | 3.0 | 7.0 | 0.00 | 0.00 | 0.00 | 89 | 1017.4 |
| 20260905151320 | 74 | 358 | 3.0 | 6.0 | 0.00 | 0.00 | 0.00 | 90 | 1017.3 |
| 20260905150420 | 74 | 343 | 3.0 | 8.0 | 0.00 | 0.00 | 0.00 | 90 | 1017.2 |
| 20260905145520 | 73 | 14 | 3.0 | 8.0 | 0.00 | 0.00 | 0.00 | 92 | 1017.1 |
| 20260905144620 | 73 | 27 | 4.0 | 9.0 | 0.00 | 0.01 | 0.00 | 92 | 1017.1 |
| 20260905143720 | 73 | 8 | 3.0 | 11.0 | 0.00 | 0.01 | 0.00 | 92 | 1017.0 |
| 20260905142820 | 73 | 1 | 2.0 | 5.0 | 0.00 | 0.02 | 0.00 | 93 | 1016.8 |
| 20260905141920 | 72 | 9 | 4.0 | 8.0 | 0.00 | 0.09 | 0.00 | 93 | 1016.7 |
| 20260905141020 | 72 | 17 | 1.0 | 5.0 | 0.00 | 0.09 | 0.00 | 94 | 1016.6 |
| 20260905140120 | 72 | 1 | 2.0 | 6.0 | 0.00 | 0.12 | 0.00 | 95 | 1016.8 |
| 20260905134320 | 71 | 32 | 3.0 | 7.0 | 0.00 | 0.24 | 0.00 | 95 | 1017.0 |